GSAT-15

Last updated on Sun Oct 06 2024 00:02:40 GMT+0000 (Coordinated Universal Time)

1 41028U 15065A 24279.62543785 -.00000248 00000+0 00000+0 0 9999 2 41028 0.0186 239.7419 0002314 300.9690 152.7530 1.00272399 32588
UTC large
Height (km)
Speed (km/s)
/
Latitude / Longitude
Inclination (degrees)
Orbital Period (minutes)
Azimuth
Elevation
Range (km)
Doppler Factor

Next 0 passes for location: London (51.5072 / 0.1276)

Sorry there are no passes over London.